Minneapolis Flying Cloud, MN

1:53 AM CDT on June 27, 2017 (GMT -0500)
Flying Cloud

Weather History for KFCM - November, 2014

Change the Weather History Date:

Tuesday, November 18, 2014

  Actual Average Record
Temperature  
Mean Temperature 12 °F -  
Max Temperature 19 °F 39 °F 59 °F (2012)
Min Temperature 6 °F 26 °F 6 °F (2014)
Degree Days  
Heating Degree Days 53    
Moisture  
Dew Point 6 °F    
Average Humidity 71    
Maximum Humidity 80    
Minimum Humidity 56    
Precipitation  
Precipitation 0.00 in - - ()
Sea Level Pressure  
Sea Level Pressure 29.99 in    
Wind  
Wind Speed 11 mph (WSW)    
Max Wind Speed 17 mph    
Max Gust Speed -    
Visibility 9 miles    
Events Snow    
Averages and records for this station are not official NWS values.
T = Trace of Precipitation, MM = Missing Value Source: NWS Daily Summary

Daily Weather History Graph

Daily Weather History Graph

Search for Another Location

Airport or City:

Trip Planner

Search our weather history database for the weather conditions in past years. The results will help you decide how hot, cold, wet, or windy it might be!

Date:

Astronomy

Nov. 18, 2014 Rise Set
Actual Time 7:15 AM CST 4:42 PM CST
Civil Twilight 6:43 AM CST 5:14 PM CST
Nautical Twilight 6:07 AM CST 5:50 PM CST
Astronomical Twilight 5:32 AM CST 6:24 PM CST
Moon 3:03 AM CST (11/18) 2:46 PM CST (11/18)
Length of Visible Light 10h 31m
Length of Day
9h 27m
Waning Crescent, 15% of the Moon is Illuminated
Nov 18
Waning Crescent
Nov 22
New
Nov 29
First Quarter
Dec 6
Full
Dec 14
Last Quarter

Hourly Weather History & Observations

Time (CST) Temp. Windchill Dew Point Humidity Pressure Visibility Wind Dir Wind Speed Gust Speed Precip Events Conditions
12:53 AM 10.9 °F -3.4 °F 3.0 °F 70% 30.03 in 10.0 mi WNW 11.5 mph - N/A   Overcast
1:53 AM 12.0 °F -5.1 °F 3.0 °F 67% 30.03 in 10.0 mi WNW 17.3 mph - N/A   Overcast
2:53 AM 10.0 °F -4.5 °F 1.0 °F 67% 30.04 in 10.0 mi WNW 11.5 mph - N/A   Mostly Cloudy
3:53 AM 8.1 °F -5.3 °F 1.0 °F 73% 30.05 in 10.0 mi West 9.2 mph - N/A   Scattered Clouds
4:53 AM 6.1 °F -4.3 °F 1.0 °F 80% 30.06 in 10.0 mi WSW 5.8 mph - N/A   Mostly Cloudy
5:53 AM 7.0 °F -3.3 °F 1.9 °F 80% 30.06 in 10.0 mi West 5.8 mph - N/A   Overcast
6:53 AM 10.0 °F -5.2 °F 3.9 °F 76% 30.07 in 10.0 mi WNW 12.7 mph - 0.00 in   Overcast
7:53 AM 9.0 °F -5.1 °F 3.0 °F 77% 30.07 in 10.0 mi West 10.4 mph - N/A   Overcast
8:53 AM 10.9 °F -2.6 °F 3.9 °F 73% 30.09 in 10.0 mi West 10.4 mph - N/A   Overcast
9:53 AM 12.9 °F -0.9 °F 5.0 °F 71% 30.09 in 10.0 mi WNW 11.5 mph - N/A   Overcast
10:53 AM 14.0 °F -0.2 °F 5.0 °F 67% 30.08 in 10.0 mi WNW 12.7 mph - N/A   Overcast
11:53 AM 16.0 °F 3.6 °F 7.0 °F 68% 30.06 in 9.0 mi WNW 10.4 mph - 0.00 in   Overcast
12:14 PM 16.0 °F 6.3 °F 8.1 °F 71% 29.99 in 3.0 mi West 6.9 mph - 0.00 in Snow Light Snow
12:34 PM 16.0 °F 3.6 °F 8.1 °F 71% 29.99 in 10.0 mi West 10.4 mph - 0.00 in   Overcast
12:53 PM 16.0 °F 4.4 °F 7.0 °F 68% 30.03 in 10.0 mi West 9.2 mph - 0.00 in   Overcast
1:53 PM 17.1 °F 3.6 °F 3.9 °F 56% 30.01 in 10.0 mi WSW 12.7 mph - 0.00 in   Overcast
2:53 PM 17.1 °F 6.6 °F 7.0 °F 65% 30.00 in 10.0 mi WSW 8.1 mph - N/A   Overcast
3:53 PM 18.0 °F 6.9 °F 7.0 °F 62% 29.99 in 10.0 mi SW 9.2 mph - N/A   Overcast
4:53 PM 17.1 °F 7.6 °F 8.1 °F 68% 29.96 in 10.0 mi SSW 6.9 mph - N/A   Overcast
5:53 PM 17.1 °F 5.8 °F 9.0 °F 71% 29.95 in 10.0 mi South 9.2 mph - N/A   Overcast
6:30 PM 17.1 °F 6.6 °F 10.0 °F 74% 29.89 in 10.0 mi SSW 8.1 mph - N/A   Overcast
6:53 PM 17.1 °F 5.8 °F 10.0 °F 74% 29.93 in 10.0 mi South 9.2 mph - N/A   Overcast
7:53 PM 17.1 °F 4.3 °F 10.9 °F 77% 29.91 in 10.0 mi South 11.5 mph - N/A   Overcast
8:53 PM 17.1 °F 4.3 °F 10.0 °F 74% 29.88 in 10.0 mi South 11.5 mph - N/A   Overcast
9:53 PM 18.0 °F 4.8 °F 10.9 °F 74% 29.84 in 10.0 mi South 12.7 mph - N/A   Overcast
10:53 PM 18.0 °F 6.9 °F 12.0 °F 78% 29.81 in 5.0 mi SSW 9.2 mph - 0.00 in Snow Light Snow
11:53 PM 19.0 °F 6.8 °F 12.0 °F 74% 29.78 in 5.0 mi South 11.5 mph - 0.00 in Snow Light Snow